$DATE,$TIME,DM0600B,DM0602B,DM0604B,DM0614B,DM0616B,DM0618B,DM0624B,DM0628B,DM0630B,DM0634B,DM0606B,DM0608B,DM0610B
10/01/94,00:00:00,10,8,5,6,43,24,65,76,33,0,11,10,8
10/01/94,00:05:00,0,0,1,0,44,24,66,77,33,0,11,14,8
10/01/94,00:10:00,0,0,0,0,44,25,67,77,33,0,19,25,19
10/01/94,00:15:00,0,0,0,0,44,25,67,77,33,0,20,18,15
10/01/94,00:20:00,0,0,0,0,43,24,64,77,33,0,16,14,11
10/01/94,00:25:00,0,0,0,0,47,26,71,77,33,0,13,19,11
10/01/94,00:30:00,0,0,0,0,46,26,69,77,33,0,21,25,19
10/01/94,00:35:00,0,0,0,0,46,26,69,77,33,0,20,16,13
10/01/94,00:40:00,0,0,0,0,45,25,67,76,37,0,16,15,11
10/01/94,00:45:00,0,0,0,0,48,27,72,76,37,0,17,26,21
10/01/94,00:50:00,0,0,0,0,48,27,72,76,45,0,23,20,16
10/01/94,00:55:00,0,0,0,0,46,26,70,77,45,0,18,15,12
10/01/94,01:00:00,0,0,0,0,50,28,75,77,45,0,15,24,20
10/01/94,01:05:00,0,0,0,0,51,28,76,76,45,0,23,22,17
10/01/94,01:10:00,0,0,0,0,51,29,77,76,45,0,20,16,12
10/01/94,01:15:00,0,0,0,0,46,26,70,77,45,0,16,20,16
10/01/94,01:20:00,0,0,0,0,46,26,70,76,45,0,19,27,20
10/01/94,01:25:00,0,0,0,0,42,24,64,77,45,0,25,18,14
10/01/94,01:30:00,0,0,0,0,44,25,66,77,45,0,18,21,22
10/01/94,01:35:00,0,0,0,0,39,22,59,77,45,0,18,28,18
10/01/94,01:40:00,0,0,0,0,29,16,44,77,45,0,29,19,19
10/01/94,01:45:00,0,0,0,0,32,18,48,77,45,0,23,29,22
10/01/94,01:50:00,0,0,0,0,37,21,56,77,45,0,20,24,19
10/01/94,01:55:00,0,0,0,0,34,18,51,77,45,0,30,24,23
10/01/94,02:00:00,0,0,0,0,47,24,70,77,45,0,23,31,16
10/01/94,02:05:00,0,0,0,0,47,24,69,77,38,0,18,18,24
10/01/94,02:10:00,0,0,0,0,47,25,70,76,38,0,26,27,15
10/01/94,02:15:00,0,0,0,0,50,26,74,76,38,0,24,23,13
10/01/94,02:20:00,0,0,0,0,50,27,75,77,45,0,18,16,22
10/01/94,02:25:00,0,0,0,0,51,28,76,77,44,0,19,25,15
10/01/94,02:30:00,0,0,1,0,45,25,67,77,45,0,25,23,13
10/01/94,02:35:00,2,2,9,0,45,25,69,76,44,0,20,17,21
10/01/94,02:40:00,11,3,8,3,48,28,74,77,45,0,16,13,15
10/01/94,02:45:00,8,2,9,4,47,27,72,76,45,0,13,13,11
10/01/94,02:50:00,13,11,23,4,42,24,64,76,44,0,12,20,9
10/01/94,02:55:00,9,7,16,9,35,20,53,76,44,0,11,15,9
10/01/94,03:00:00,35,33,27,29,29,17,45,76,44,0,10,12,8
10/01/94,03:05:00,25,13,19,3,29,17,44,76,45,0,13,14,8
10/01/94,03:10:00,32,25,36,17,30,17,46,75,44,0,18,21,7
10/01/94,03:15:00,31,31,43,22,32,0,31,75,36,0,16,15,7
10/01/94,03:20:00,16,4,10,7,35,0,33,75,36,0,13,12,7
10/01/94,03:25:00,35,28,35,24,0,0,0,75,36,0,11,10,7
10/01/94,03:30:00,28,27,32,24,0,0,0,75,36,0,10,9,6
10/01/94,03:35:00,33,24,30,24,0,0,0,76,44,0,9,8,6
10/01/94,03:40:00,58,41,49,32,0,0,0,75,44,0,9,7,7
10/01/94,03:45:00,41,14,41,20,0,0,0,75,44,0,9,7,7
10/01/94,03:50:00,18,21,50,6,0,0,0,76,44,0,8,7,7
10/01/94,03:55:00,33,26,24,19,0,0,0,76,44,0,8,13,6
10/01/94,04:00:00,18,19,14,10,24,0,23,76,45,0,8,21,6
10/01/94,04:05:00,6,2,2,2,22,0,21,77,45,0,10,15,6
10/01/94,04:10:00,15,7,2,9,23,14,13,77,45,0,21,16,21
10/01/94,04:15:00,0,0,0,0,21,12,33,77,45,0,23,26,17
10/01/94,04:20:00,0,0,0,0,20,12,31,78,45,0,17,18,14
10/01/94,04:25:00,0,0,0,0,17,10,27,78,45,0,23,25,26
10/01/94,04:30:00,0,0,0,0,16,9,25,78,45,0,29,30,18
10/01/94,04:35:00,0,0,0,0,16,9,25,78,45,0,22,23,31
10/01/94,04:40:00,0,0,0,0,16,9,24,78,45,0,32,35,24
10/01/94,04:45:00,2,0,13,7,14,8,23,79,45,0,27,24,25
10/01/94,04:50:00,12,14,21,4,14,8,22,78,45,0,28,31,30
10/01/94,04:55:00,16,17,16,7,15,9,23,78,45,0,27,28,18
10/01/94,05:00:00,44,39,62,35,13,8,21,76,61,0,19,17,16
10/01/94,05:05:00,50,29,50,27,14,8,22,76,44,0,15,13,12
10/01/94,05:10:00,52,40,50,33,0,0,0,75,44,0,12,11,10
10/01/94,05:15:00,60,41,50,35,0,0,0,75,44,0,11,10,9
10/01/94,05:20:00,43,38,48,30,0,0,0,75,44,0,10,9,8
10/01/94,05:25:00,59,23,40,41,0,0,0,75,44,0,9,8,7
10/01/94,05:30:00,42,14,35,35,0,0,0,75,44,0,8,7,7
10/01/94,05:35:00,26,26,40,48,0,0,0,75,44,0,8,7,7
10/01/94,05:40:00,51,17,34,31,0,0,0,75,44,0,8,6,6
10/01/94,05:45:00,38,25,37,41,0,0,0,76,44,0,8,6,6
10/01/94,05:50:00,53,34,33,29,0,0,0,76,44,0,7,7,6
10/01/94,05:55:00,42,26,44,40,0,0,0,76,44,0,7,7,6
10/01/94,06:00:00,40,22,37,38,0,0,0,76,36,0,7,6,6
10/01/94,06:05:00,38,34,42,45,0,0,0,76,36,0,7,6,7
10/01/94,06:10:00,58,29,39,41,0,0,0,75,36,0,7,6,7
10/01/94,06:15:00,52,45,35,40,0,0,0,75,36,0,7,6,7
10/01/94,06:20:00,54,44,39,38,0,0,0,75,36,0,7,6,6
10/01/94,06:25:00,56,37,43,37,0,0,0,75,36,0,7,6,6
10/01/94,06:30:00,54,42,37,36,0,0,0,75,44,0,6,6,6
10/01/94,06:35:00,59,46,44,33,0,0,0,75,44,0,6,6,6
10/01/94,06:40:00,46,24,38,37,0,0,0,76,44,0,7,6,6
10/01/94,06:45:00,48,28,42,38,0,0,0,76,44,0,7,6,6
10/01/94,06:50:00,54,41,47,35,0,0,0,75,44,0,7,6,6
10/01/94,06:55:00,48,22,46,32,0,0,0,76,44,0,7,6,6
10/01/94,07:00:00,37,23,31,37,0,0,0,76,45,0,7,6,6
10/01/94,07:05:00,36,9,48,40,0,0,0,76,45,0,7,5,6
10/01/94,07:10:00,36,19,44,46,0,0,0,76,45,0,6,5,7
10/01/94,07:15:00,51,21,46,39,0,0,0,76,45,0,7,5,7
10/01/94,07:20:00,55,20,40,36,0,0,0,77,45,0,6,5,7
10/01/94,07:25:00,43,22,29,41,0,0,0,77,61,0,6,5,6
10/01/94,07:30:00,48,22,34,37,0,0,0,76,44,0,6,5,6
10/01/94,07:35:00,49,18,39,41,0,0,0,79,45,0,6,5,6
10/01/94,07:40:00,57,22,44,43,0,0,0,79,45,0,10,5,6
10/01/94,07:45:00,46,27,38,38,0,0,0,79,45,0,12,5,6
10/01/94,07:50:00,42,18,40,35,0,0,0,79,45,0,10,5,6
10/01/94,07:55:00,48,15,33,37,0,0,0,79,38,0,9,5,6
10/01/94,08:00:00,43,17,28,38,0,0,0,78,38,0,8,4,6
10/01/94,08:05:00,44,16,35,32,0,0,0,78,36,0,7,4,6
10/01/94,08:10:00,31,28,29,47,0,0,0,78,37,0,6,4,5
10/01/94,08:15:00,40,37,28,41,0,0,0,78,37,0,6,4,7
10/01/94,08:20:00,44,33,37,27,0,0,0,78,37,0,6,4,6
10/01/94,08:25:00,40,19,41,35,0,0,0,77,37,0,6,4,6
10/01/94,08:30:00,32,27,38,35,0,0,0,77,37,0,6,4,6
10/01/94,08:35:00,45,22,36,40,0,0,0,78,37,0,6,5,6
10/01/94,08:40:00,46,32,37,36,0,0,0,78,37,0,6,5,6
10/01/94,08:45:00,39,32,40,39,0,0,0,78,37,0,6,5,6
10/01/94,08:50:00,42,1,0,40,0,0,0,78,28,0,7,5,6
10/01/94,08:55:00,43,0,9,46,0,0,0,79,44,0,7,6,6
10/01/94,09:00:00,16,0,0,41,0,0,0,79,28,0,6,17,5
10/01/94,09:05:00,40,1,7,48,0,0,0,78,28,0,6,16,6
10/01/94,09:10:00,27,0,6,47,0,0,0,78,28,0,6,12,5
10/01/94,09:15:00,41,0,4,47,0,0,0,79,28,0,6,9,5
10/01/94,09:20:00,55,0,10,46,0,0,0,79,28,0,12,8,6
10/01/94,09:25:00,44,1,11,42,0,0,0,78,28,0,18,9,6
10/01/94,09:30:00,46,0,12,44,0,0,0,79,28,0,14,19,6
10/01/94,09:35:00,48,0,11,40,0,0,0,76,28,0,11,15,6
10/01/94,09:40:00,39,0,14,33,0,0,0,79,45,0,9,11,6
10/01/94,09:45:00,39,1,3,51,0,0,0,79,28,0,8,9,6
10/01/94,09:50:00,65,0,1,51,0,0,0,79,28,0,7,8,6
10/01/94,09:55:00,51,0,7,39,0,0,0,79,28,0,7,17,6
10/01/94,10:00:00,46,0,12,46,0,0,0,79,28,0,6,18,6
10/01/94,10:05:00,59,0,0,50,0,0,0,79,28,0,7,13,6
10/01/94,10:10:00,54,0,1,43,0,0,0,79,28,0,14,10,6
10/01/94,10:15:00,48,3,0,42,0,0,0,79,28,0,17,8,6
10/01/94,10:20:00,55,0,9,48,0,0,0,79,28,0,13,7,6
10/01/94,10:25:00,44,1,4,46,0,0,0,79,28,0,11,11,7
10/01/94,10:30:00,58,0,13,45,0,0,0,79,28,0,9,20,7
10/01/94,10:35:00,45,0,0,47,0,0,0,79,28,0,8,15,6
10/01/94,10:40:00,46,0,6,53,0,0,0,79,28,0,7,11,6
10/01/94,10:45:00,43,4,0,47,0,0,0,79,28,0,7,9,6
10/01/94,10:50:00,53,0,19,46,0,0,0,79,28,0,10,9,6
10/01/94,10:55:00,51,0,23,48,0,0,0,79,28,0,18,19,6
10/01/94,11:00:00,50,0,11,45,0,0,0,79,28,0,15,16,6
10/01/94,11:05:00,64,0,6,43,0,0,0,79,28,0,12,11,6
10/01/94,11:10:00,37,0,14,49,0,0,0,79,41,0,10,9,6
10/01/94,11:15:00,40,0,18,35,0,0,0,77,30,0,8,8,5
10/01/94,11:20:00,60,0,19,34,0,0,0,79,30,0,8,18,6
10/01/94,11:25:00,56,0,30,47,0,0,0,79,32,0,6,18,5
10/01/94,11:30:00,40,0,17,43,0,0,0,79,32,0,9,13,6
10/01/94,11:35:00,41,0,26,44,0,0,0,79,32,0,17,10,6
10/01/94,11:40:00,53,0,11,45,0,0,0,79,32,0,16,8,6
10/01/94,11:45:00,45,0,12,38,0,0,0,79,32,0,12,9,6
10/01/94,11:50:00,63,0,22,42,0,0,0,79,32,0,10,19,5
10/01/94,11:55:00,61,0,4,41,0,0,0,79,33,0,8,17,5
10/01/94,12:00:00,44,0,15,50,0,0,0,80,46,0,7,12,5
10/01/94,12:05:00,56,0,9,53,0,0,0,79,47,0,13,11,5
10/01/94,12:10:00,41,1,0,38,0,0,0,79,47,0,20,21,5
10/01/94,12:15:00,64,0,20,45,0,0,0,79,47,0,16,17,5
10/01/94,12:20:00,40,0,14,49,0,0,0,79,47,0,13,12,5
10/01/94,12:25:00,60,0,15,47,0,0,0,80,47,0,10,13,11
10/01/94,12:30:00,49,0,8,40,0,0,0,79,47,0,9,22,16
10/01/94,12:35:00,43,0,11,48,0,0,0,79,47,0,10,16,11
10/01/94,12:40:00,46,0,11,50,0,0,0,79,56,0,19,12,9
10/01/94,12:45:00,58,0,14,51,0,0,0,79,47,0,18,10,8
10/01/94,12:50:00,52,4,23,51,0,0,0,79,47,0,13,19,7
10/01/94,12:55:00,54,0,15,50,0,0,0,79,47,0,11,20,7
10/01/94,13:00:00,54,0,0,51,0,0,0,79,47,0,10,14,6
10/01/94,13:05:00,50,0,7,46,0,0,0,79,32,0,17,11,6
10/01/94,13:10:00,51,0,10,51,0,0,0,79,32,0,17,9,6
10/01/94,13:15:00,41,1,4,53,0,0,0,79,32,0,13,15,6
10/01/94,13:20:00,56,6,0,44,0,0,0,79,32,0,11,20,6
10/01/94,13:25:00,46,1,0,43,0,0,0,79,46,0,9,14,6
10/01/94,13:30:00,47,0,13,45,0,0,0,79,32,0,8,11,5
10/01/94,13:35:00,51,0,22,44,0,0,0,77,32,0,11,10,6
10/01/94,13:40:00,60,0,5,48,0,0,0,76,32,0,18,19,6
10/01/94,13:45:00,49,0,8,48,0,0,0,76,32,0,15,16,5
10/01/94,13:50:00,41,0,25,46,0,0,0,79,28,0,12,11,5
10/01/94,13:55:00,49,0,8,47,0,0,0,79,28,0,10,9,5
10/01/94,14:00:00,44,0,5,44,0,0,0,79,28,0,9,7,5
10/01/94,14:05:00,53,0,11,50,0,0,0,79,29,0,8,12,5
10/01/94,14:10:00,69,0,32,46,0,0,0,79,28,0,7,20,5
10/01/94,14:15:00,66,0,20,40,0,0,0,79,28,0,7,14,5
10/01/94,14:20:00,32,0,23,49,0,0,0,79,28,0,6,11,4
10/01/94,14:25:00,57,0,18,25,0,0,0,79,28,0,14,9,4
10/01/94,14:30:00,46,0,13,40,0,0,0,79,28,0,17,7,4
10/01/94,14:35:00,65,0,15,45,0,0,0,76,28,0,13,10,4
10/01/94,14:40:00,35,0,7,45,0,0,0,76,28,0,10,18,5
10/01/94,14:45:00,31,0,10,35,0,0,0,76,28,0,9,14,5
10/01/94,14:50:00,48,0,16,50,0,0,0,76,28,0,8,10,5
10/01/94,14:55:00,48,0,44,41,0,0,0,76,29,0,7,8,5
10/01/94,15:00:00,53,0,3,46,0,0,0,76,28,0,8,9,5
10/01/94,15:05:00,44,0,17,47,0,0,0,76,28,0,15,18,5
10/01/94,15:10:00,60,0,38,37,0,0,0,75,28,0,14,15,5
10/01/94,15:15:00,58,0,25,37,0,0,0,76,28,0,12,11,5
10/01/94,15:20:00,63,0,20,38,0,0,0,75,28,0,9,8,5
10/01/94,15:25:00,39,0,18,45,0,0,0,75,28,0,8,7,5
10/01/94,15:30:00,58,0,16,38,0,0,0,75,28,0,7,9,5
10/01/94,15:35:00,44,0,20,42,0,0,0,75,28,0,6,19,5
10/01/94,15:40:00,57,0,11,36,0,0,0,75,57,0,6,16,5
10/01/94,15:45:00,39,0,38,54,0,0,0,75,28,0,6,11,6
10/01/94,15:50:00,51,0,37,46,0,0,0,76,28,0,7,9,5
10/01/94,15:55:00,39,0,10,47,0,0,0,75,28,0,15,7,5
10/01/94,16:00:00,58,0,17,49,0,0,0,75,28,0,15,6,5
10/01/94,16:05:00,38,0,18,44,0,0,0,75,28,0,11,12,5
10/01/94,16:10:00,43,0,5,38,0,0,0,75,28,0,9,18,5
10/01/94,16:15:00,61,0,9,43,0,0,0,75,28,0,8,13,5
10/01/94,16:20:00,44,0,28,45,0,0,0,75,28,0,7,10,5
10/01/94,16:25:00,54,0,19,51,0,0,0,76,28,0,6,8,5
10/01/94,16:30:00,54,0,9,42,0,0,0,76,28,0,9,11,5
10/01/94,16:35:00,46,0,26,41,0,0,0,75,28,0,16,20,5
10/01/94,16:40:00,57,0,6,47,0,0,0,75,28,0,14,15,5
10/01/94,16:45:00,57,0,28,42,0,0,0,75,28,0,11,11,5
10/01/94,16:50:00,40,0,33,39,0,0,0,75,28,0,9,9,5
10/01/94,16:55:00,32,0,31,34,0,0,0,76,28,0,7,7,5
10/01/94,17:00:00,48,0,33,43,0,0,0,76,43,0,6,11,5
10/01/94,17:05:00,50,0,14,48,0,0,0,75,28,0,6,19,5
10/01/94,17:10:00,51,0,14,35,0,0,0,76,28,0,6,14,5
10/01/94,17:15:00,55,0,31,50,0,0,0,76,28,0,5,11,5
10/01/94,17:20:00,49,0,24,47,0,0,0,75,28,0,9,8,5
10/01/94,17:25:00,30,0,18,44,0,0,0,76,26,0,16,7,5
10/01/94,17:30:00,37,0,25,28,0,0,0,77,26,0,13,6,5
10/01/94,17:35:00,45,0,26,53,0,0,0,75,26,0,10,11,5
10/01/94,17:40:00,45,0,27,33,0,0,0,76,26,0,8,17,5
10/01/94,17:45:00,46,0,23,37,0,0,0,75,26,0,7,12,5
10/01/94,17:50:00,0,0,32,45,0,0,0,76,26,0,8,9,5
10/01/94,17:55:00,20,0,24,53,0,0,0,76,26,0,16,16,12
10/01/94,18:00:00,6,0,26,47,0,0,0,76,26,0,18,20,14
10/01/94,18:05:00,16,0,49,48,0,0,0,76,26,0,13,13,10
10/01/94,18:10:00,25,0,38,59,0,0,0,76,27,0,11,13,8
10/01/94,18:15:00,23,0,28,42,0,0,0,76,27,0,17,22,11
10/01/94,18:20:00,15,0,29,41,0,0,0,76,26,0,19,18,16
10/01/94,18:25:00,22,0,29,50,0,0,0,76,27,0,14,12,11
10/01/94,18:30:00,0,0,24,48,0,0,0,77,27,0,11,16,9
10/01/94,18:35:00,2,0,12,65,0,0,0,76,26,0,16,24,8
10/01/94,18:40:00,19,0,34,52,3,2,6,76,27,0,19,16,7
10/01/94,18:45:00,5,0,24,35,3,2,6,76,26,0,14,12,8
10/01/94,18:50:00,45,0,25,57,4,3,7,76,26,0,10,20,18
10/01/94,18:55:00,14,0,20,45,4,3,7,76,26,0,12,20,13
10/01/94,19:00:00,19,0,32,42,4,3,7,76,26,0,20,13,10
10/01/94,19:05:00,0,0,28,48,4,3,7,76,26,0,16,12,8
10/01/94,19:10:00,10,0,20,54,4,3,7,76,26,0,12,21,7
10/01/94,19:15:00,0,0,21,57,4,3,8,76,26,0,11,18,6
10/01/94,19:20:00,38,0,21,52,5,3,8,76,26,0,19,13,16
10/01/94,19:25:00,0,0,49,54,5,3,9,76,41,0,18,11,14
10/01/94,19:30:00,0,0,12,47,6,4,10,76,26,0,13,20,10
10/01/94,19:35:00,20,0,47,51,6,4,10,76,26,0,10,18,8
10/01/94,19:40:00,0,0,30,53,6,4,10,76,26,0,13,12,7
10/01/94,19:45:00,7,0,33,44,6,4,10,76,26,0,20,15,7
10/01/94,19:50:00,0,0,43,53,6,4,10,76,26,0,16,23,19
10/01/94,19:55:00,30,0,21,45,6,4,10,76,26,0,12,16,14
10/01/94,20:00:00,6,0,21,40,6,4,10,76,26,0,10,11,10
10/01/94,20:05:00,10,0,14,45,6,4,11,76,26,0,17,18,8
10/01/94,20:10:00,2,0,44,44,7,4,12,76,34,0,18,20,7
10/01/94,20:15:00,25,0,0,58,8,5,14,76,27,0,14,14,7
10/01/94,20:20:00,0,0,37,60,10,6,16,76,27,0,10,12,6
10/01/94,20:25:00,3,0,20,30,10,6,16,76,27,0,15,21,6
10/01/94,20:30:00,0,0,52,55,9,5,15,76,26,0,19,19,6
10/01/94,20:35:00,2,0,42,50,9,5,14,76,26,0,14,12,6
10/01/94,20:40:00,0,0,34,41,9,5,14,76,27,0,10,13,5
10/01/94,20:45:00,32,0,60,53,9,6,15,76,26,0,13,22,15
10/01/94,20:50:00,0,0,44,52,10,6,16,76,26,0,17,17,13
10/01/94,20:55:00,17,0,14,43,9,6,15,77,33,0,14,12,10
10/01/94,21:00:00,18,0,29,38,9,6,15,77,26,0,10,10,8
10/01/94,21:05:00,4,0,23,37,10,6,16,77,26,0,11,19,7
10/01/94,21:10:00,0,0,65,39,12,7,19,77,26,0,18,19,6
10/01/94,21:15:00,26,0,41,49,13,8,20,76,26,0,15,13,6
10/01/94,21:20:00,17,0,11,50,14,8,23,77,26,0,12,12,8
10/01/94,21:25:00,0,0,26,52,14,8,23,77,26,0,10,21,16
10/01/94,21:30:00,11,0,22,55,16,9,25,76,30,0,16,17,12
10/01/94,21:35:00,11,0,25,42,17,10,27,77,30,0,15,12,9
10/01/94,21:40:00,28,0,33,44,17,10,27,77,30,0,12,9,8
10/01/94,21:45:00,15,0,40,31,18,10,28,77,30,0,9,14,7
10/01/94,21:50:00,17,0,18,35,17,10,26,77,30,0,8,20,6
10/01/94,21:55:00,11,0,35,57,18,10,27,78,30,0,9,14,6
10/01/94,22:00:00,0,0,28,52,18,10,28,77,30,0,18,11,6
10/01/94,22:05:00,6,0,23,50,19,11,30,78,30,0,16,8,6
10/01/94,22:10:00,33,0,17,41,20,11,30,77,30,0,13,13,6
10/01/94,22:15:00,4,0,15,42,18,11,29,77,30,0,9,20,5
10/01/94,22:20:00,0,0,8,50,19,11,29,78,30,0,8,14,5
10/01/94,22:25:00,2,0,23,60,21,12,33,77,26,0,11,10,5
10/01/94,22:30:00,35,0,20,32,22,13,35,77,26,0,18,15,6
10/01/94,22:35:00,6,0,20,46,23,13,36,78,26,0,14,17,6
10/01/94,22:40:00,9,0,16,44,24,14,36,78,26,0,11,12,5
10/01/94,22:45:00,3,0,22,51,25,14,39,78,26,0,9,9,5
10/01/94,22:50:00,9,0,26,50,27,15,41,78,26,0,8,7,5
10/01/94,22:55:00,2,0,23,35,27,15,41,78,26,0,9,10,5
10/01/94,23:00:00,3,0,10,38,26,15,40,78,26,0,16,19,5
10/01/94,23:05:00,6,5,0,36,27,15,41,78,26,0,14,14,5
10/01/94,23:10:00,17,0,47,42,26,15,39,78,43,0,10,11,5
10/01/94,23:15:00,33,0,42,32,31,18,47,78,26,0,9,8,5
10/01/94,23:20:00,15,0,53,33,31,17,47,78,26,0,7,6,5
10/01/94,23:25:00,3,0,30,46,29,17,45,77,26,0,7,6,5
10/01/94,23:30:00,30,0,33,53,33,19,51,77,26,0,6,13,5
10/01/94,23:35:00,30,0,22,35,31,17,47,77,26,0,6,16,5
10/01/94,23:40:00,12,0,22,41,28,16,43,76,26,0,5,12,5
10/01/94,23:45:00,27,0,3,40,27,16,42,77,26,0,5,9,5
10/01/94,23:50:00,29,0,53,52,27,15,41,77,26,0,5,7,5
10/01/94,23:55:00,31,0,18,27,24,14,36,77,27,0,6,7,4
10/02/94,00:00:00,2,0,25,36,27,15,41,77,26,0,14,15,4
